TimeCST,TemperatureF,Dew PointF,Humidity,Sea Level PressureIn,VisibilityMPH,Wind Direction,Wind SpeedMPH,Gust SpeedMPH,PrecipitationIn,Events,Conditions,WindDirDegrees,DateUTC
12:52 AM,41.0,37.0,86,30.22,4.0,SW,6.9,-,N/A,,Overcast,220,2011-11-24 06:52:00
1:52 AM,41.0,37.0,86,30.22,5.0,SSW,9.2,-,N/A,,Overcast,210,2011-11-24 07:52:00
2:52 AM,42.1,37.9,85,30.21,4.0,SSW,10.4,-,N/A,,Overcast,210,2011-11-24 08:52:00
4:52 AM,42.1,37.9,85,30.20,3.0,SSW,13.8,21.9,N/A,,Overcast,200,2011-11-24 10:52:00
5:31 AM,42.8,39.2,87,30.18,2.5,SSW,11.5,-,N/A,,Overcast,200,2011-11-24 11:31:00
5:52 AM,42.1,39.0,89,30.19,2.5,South,10.4,-,N/A,,Overcast,190,2011-11-24 11:52:00
5:59 AM,42.8,39.2,87,30.17,2.5,South,12.7,-,N/A,,Overcast,190,2011-11-24 11:59:00
7:28 AM,42.8,39.2,87,30.18,2.0,SSW,11.5,-,N/A,,Mist,200,2011-11-24 13:28:00
7:36 AM,42.8,39.2,87,30.18,1.5,SSW,11.5,-,N/A,,Mist,200,2011-11-24 13:36:00
7:49 AM,42.8,39.2,87,30.17,1.5,South,13.8,-,N/A,,Overcast,190,2011-11-24 13:49:00
7:52 AM,43.0,39.9,89,30.18,1.5,South,13.8,-,N/A,,Overcast,190,2011-11-24 13:52:00
8:52 AM,44.1,39.9,85,30.18,2.5,SSW,15.0,20.7,N/A,,Overcast,200,2011-11-24 14:52:00
9:29 AM,44.6,41.0,87,30.17,3.0,SSW,10.4,20.7,N/A,,Overcast,200,2011-11-24 15:29:00
9:52 AM,45.0,41.0,86,30.18,3.0,SSW,13.8,-,N/A,,Overcast,200,2011-11-24 15:52:00
10:52 AM,46.9,41.0,80,30.17,4.0,South,12.7,-,N/A,,Haze,190,2011-11-24 16:52:00
11:10 AM,48.2,41.0,76,30.15,4.0,SSW,11.5,-,N/A,,Haze,200,2011-11-24 17:10:00
11:33 AM,50.0,42.8,76,30.13,4.0,South,13.8,-,N/A,,Haze,180,2011-11-24 17:33:00
12:52 PM,55.0,43.0,64,30.10,7.0,South,16.1,23.0,N/A,,Clear,190,2011-11-24 18:52:00
1:52 PM,57.0,42.1,57,30.07,10.0,South,19.6,26.5,N/A,,Unknown,180,2011-11-24 19:52:00
2:52 PM,57.0,42.1,57,30.07,10.0,South,17.3,-,N/A,,Clear,190,2011-11-24 20:52:00
3:52 PM,55.0,42.1,62,30.04,10.0,South,13.8,23.0,N/A,,Clear,180,2011-11-24 21:52:00
4:52 PM,54.0,42.1,64,30.03,10.0,South,13.8,-,N/A,,Clear,180,2011-11-24 22:52:00
5:52 PM,54.0,39.9,59,30.04,10.0,South,18.4,-,N/A,,Clear,190,2011-11-24 23:52:00
6:52 PM,50.0,42.1,74,30.04,10.0,South,17.3,-,N/A,,Clear,180,2011-11-25 00:52:00
7:52 PM,50.0,41.0,71,30.02,10.0,South,19.6,26.5,N/A,,Clear,190,2011-11-25 01:52:00
8:52 PM,48.9,39.9,71,30.01,10.0,South,18.4,26.5,N/A,,Clear,190,2011-11-25 02:52:00
9:52 PM,50.0,39.9,68,30.01,10.0,South,20.7,29.9,N/A,,Clear,190,2011-11-25 03:52:00
10:52 PM,50.0,39.0,66,29.99,10.0,South,18.4,28.8,N/A,,Clear,190,2011-11-25 04:52:00
11:52 PM,48.9,39.0,69,29.98,10.0,South,20.7,29.9,N/A,,Clear,190,2011-11-25 05:52:00